Location: Dilsberg
(49.3983°N, 8.8354°E)
Time: 16:40:33
(UTC+00:00)

SPOT 5 - Pass Details

Date: 19 May 2025
Orbit: 619 x 803 km, 98.0° (Epoch: 17 June)

Event Time Altitude Azimuth Distance (km) Brightness Sun altitude
Rises 19:45:39 0° 173° (S) 2,921 5.6 -5.8°
Reaches altitude 10° 19:47:53 10° 176° (S) 2,003 4.8 -6.1°
Maximum altitude 19:52:10 63° 258° (WSW) 697 3.0 -6.6°
Drops below altitude 10° 19:56:28 10° 340° (NNW) 2,000 6.3 -7.1°
Sets 19:58:41 0° 344° (NNW) 2,916 7.2 -7.4°
